Location: Baix
(44.7118°N, 4.7648°E)
Time: 09:19:37
(UTC+00:00)

Vanguard 2 Rocket - Pass Details

Date: 03 December 2020
Orbit: 554 x 3325 km, 32.9° (Epoch: 21 January)

Event Time Altitude Azimuth Distance (km) Brightness Sun altitude
Rises 13:34:27 0° 276° (W) 6,848 11.7 17.4°
Reaches altitude 10° 13:42:52 10° 256° (WSW) 5,246 11.6 16.6°
Maximum altitude 13:48:36 13° 232° (SW) 4,457 12.1 16.1°
Drops below altitude 10° 13:53:26 10° 208° (SSW) 4,236 12.9 15.6°
Sets 13:58:42 0° 183° (S) 4,624 11.5 15.1°
